Regional Weather Roundup
Issued by NWS Upton, NY

Current Version | Previous Version | Text Only | Print | Product List | Glossary On
Versions: 1 2 3 4 5 6 7 8 9 10 11 12 13 14 15 16 17 18 19 20 21 22 23 24 25 26 27
000
ASUS41 KOKX 181006
RWROKX

Regional Weather Roundup
National Weather Service New York NY
500 AM EST SUN FEB 18 2018

Note: "FAIR" indicates few or no clouds below 12,000 feet with no
significant weather and/or obstructions to visibility.

NYZ071-072-176-178-NJZ106-104-181100-
New York City Metro Area

CITY           SKY/WX    TMP DP  RH WIND       PRES   REMARKS
Central Park   FAIR      34  31  88 W7        30.05R WCI  28
Bronx Bot Gard   N/A     34  32  93 W8        30.04R WCI  27
Bronx Lehman C   N/A     34  32  93 W8          N/A  WCI  27
LaGuardia Arpt MOCLDY    36  31  82 W10       30.03R WCI  28
Queens College   N/A     36  32  87 W9          N/A  WCI  29
Kennedy Intl   CLOUDY    35  32  88 W14G24    30.05R WCI  26
Breezy Point     N/A     34 N/A N/A W13G18      N/A  WCI  25
Brooklyn Coll    N/A     36  32  87 W16         N/A  WCI  26
Staten Island    N/A     32  32 100 W7          N/A  WCI  26
Newark/Liberty FAIR      34  31  88 W12       30.04R WCI  25
Teterboro      MOCLDY    34  31  88 W3        30.03R
$$

NYZ177-179-078>081-181100-
Long Island New York

CITY           SKY/WX    TMP DP  RH WIND       PRES   REMARKS
Jones Beach      N/A     34 N/A N/A W13G20      N/A  WCI  25
Wantagh          N/A     34  34 100 W7          N/A  WCI  28
Hempstead        N/A     34  34 100 SW6       30.05R WCI  29
Matinecock Pt    N/A     34 N/A N/A W13         N/A  WCI  25
Farmingdale    MOCLDY    33  32  96 W9        30.02R VSB 3/4 WCI  25
MacArthur/ISP  CLOUDY    33  33 100 W13       30.00R WCI  24
Shirley        CLOUDY    34  33  96 W14G21    30.00R WCI  25
Mt Sinai Harb    N/A    N/A N/A N/A W7          N/A
Westhampton    CLOUDY    34  33  96 W13       29.99R WCI  25
East Hampton   CLOUDY    34  33  96 W8        29.94R WCI  27
Southold         N/A     32  32 100 NW13        N/A  WCI  22
Montauk          N/A     38  36  92 W13G21    29.93R WCI  30
$$

NYZ052-065-067-181100-
Hudson Valley

CITY           SKY/WX    TMP DP  RH WIND       PRES   REMARKS
White Plains   FAIR      32  30  92 W9        29.99R WCI  24
Larchmont Harb   N/A     34 N/A N/A SW10        N/A  WCI  26
Croton On Huds   N/A     32 N/A N/A MISG        N/A
Somers           N/A     32  32 100 W5          N/A  WCI  27
Brewster         N/A     32  30  93 W2          N/A
Newburgh       MOCLDY    30  30 100 W9        30.01R WCI  22
Montgomery     FAIR      27  25  92 SW6       30.01R WCI  20
Otisville        N/A     32  30  93 W6          N/A  WCI  26
Warwick          N/A     32  30  93 W5          N/A  WCI  27
Suffern          N/A     32  32 100 W7          N/A  WCI  26
Poughkeepsie   FAIR      29  27  92 SW7       30.01R WCI  22
Albany         FLURRIES  30  27  88 CALM      30.02R
$$

NJZ001-105-106-008-010-013-015-019>022-104-181100-
New Jersey

CITY           SKY/WX    TMP DP  RH WIND       PRES   REMARKS
Newark/Liberty FAIR      34  31  88 W12       30.04R WCI  25
Teterboro      MOCLDY    34  31  88 W3        30.03R
Caldwell       FAIR      32  31  96 CALM      30.04R
Somerville     FAIR      32  31  96 VRB3      30.04R
Linden         FAIR      33  32  94 W9        30.05R WCI  25
Perth Amboy      N/A     34 N/A N/A W14         N/A  WCI  24
Sussex         FAIR      29  27  92 CALM      30.03R
Andover          N/A     25  25 100 CALM      30.05R
Trenton        CLOUDY    34  31  88 W8        30.07R WCI  27
Millville      CLOUDY    34  33  96 W10       30.12R WCI  26
Atlantic City  CLOUDY    36  35  96 W13       30.10R WCI  27
Wrightstown    CLOUDY    34  32  93 W10       30.05  WCI  26
Toms River     CLOUDY    33  32  96 W9        30.07R WCI  25
Belmar         CLOUDY    32  31  96 W13       30.05S WCI  22
$$

PAZ047>061-062-071-181100-
Eastern Pennsylvania

CITY           SKY/WX    TMP DP  RH WIND       PRES   REMARKS
Philadelphia   MOCLDY    34  32  92 W13       30.12R WCI  25
Allentown      FAIR      29  25  85 SW7       30.08R WCI  22
Scranton       CLOUDY    30  28  92 SW8       30.09R WCI  22
$$

CTZ002-004>006-009-010-012-RIZ004-006-007-MAZ004-011-015-181100-
Southern New England

 In CT

CITY           SKY/WX    TMP DP  RH WIND       PRES   REMARKS
Bradley Intl   LGT SNOW  30  29  96 CALM      29.96R FOG
Hartford       CLOUDY    31  29  92 CALM      29.98R
Danbury        CLOUDY    32  29  88 W6        29.99R WCI  26
Wtrbury/Oxford FLURRIES  30  28  92 W5        29.96R WCI  25
Norwalk Harbor   N/A    N/A N/A N/A W9          N/A
Bridgeport     MOCLDY    34  31  88 W9        29.99R WCI  27
Meriden        CLOUDY    29  28  96 CALM      29.98R
New Haven      CLOUDY    34  31  88 NW5       29.98R WCI  30
Chester        CLOUDY    32  30  93 CALM      29.95R FOG
Groton         CLOUDY    35  32  88 NW8       29.93R WCI  29
Willimantic    LGT SNOW  32  29  88 NW8       29.95R FOG     WCI  25

 In RI

CITY           SKY/WX    TMP DP  RH WIND       PRES   REMARKS
Providence     LGT SNOW  33  33 100 NW7       29.91R VSB 1   WCI  27
Block Island   LGT RAIN  36  36 100 W15G21    29.90R WCI  27
Westerly       MIX PCPN  35  35 100 VRB5      29.92R WCI  31

In MA

CITY           SKY/WX    TMP DP  RH WIND       PRES   REMARKS
Boston         LGT SNOW  33  32  96 N12       29.90R FOG     WCI  24
Worcester      LGT SNOW  28  26  92 NW9       29.89R FOG     WCI  19
Westfield      FLURRIES  29  29 100 CALM      29.96R
Provincetown   LGT RAIN  38  37  97 NW6       29.85F FOG     WCI  33
Nantucket      LGT RAIN  42  42 100 NE6       29.81F FOG
$$

ANZ330-335-338-340-345-350-353-355-181100-
Coastal Marine Observations


STATION/POSITION TIME  SKY/WX   TEMP    WIND        PRES    VSBY  WAVE
                                AIR SEA DIR/SP/G                  HT/PER
                 (UTC)          (F)     (DEG/KT/KT) (MB)    (MI)  (FT/S)
NY Harb Entrance 0950            36 39  290/ 19/ 21 1016.3          2/ 6
20 S Fire Island 0950            37 42  280/ 21/ 25 1015.7          3/ 6
15 E Barnegat Li 0930               41                N/A           3/ 3
Hudson Canyon    0950            41 46  300/ 27/ 33 1014.4          6/ 5
Kings Point      0936            35 35  330/  7/  9 1017.5
Execution Rocks  NOT AVBL
Western LI Sound NOT AVBL
Central LI Sound 0930            33     300/ 14/ 17   N/A           1
Robbins Reef     0936            35     270/ 12/ 17 1017.3
$$


>>>>>>>>>>>>>>>>>>>>>>>>>>>> KEY <<<<<<<<<<<<<<<<<<<<<<<<<<<
>                                                          <
>     SKY/WX - Sky Condition/Present Weather               <
>     TMP    - Temperature in Fahrenheit                   <
>     DP     - Dew Point in Fahrenheit                     <
>     RH     - Relative Humidity in Percent                <
>     WIND   - Direction (from) and Speed in MPH           <
>     PRES   - Mean Sea Level Pressure (inches of Hg)      <
>     WCI    - Wind Chill Index                            <
>     VSB    - Visibility in Miles                         <
>     HX     - Heat Index                                  <
>     TC     - Temperature in Celsius                      <
>     VRB    - Varibale Wind Direction                     <
>                                                          <
>>>>>>>>>>>>>>>>>>>>>>>>>>>> KEY <<<<<<<<<<<<<<<<<<<<<<<<<<<




USA.gov is the U.S. government's official web portal to all federal, state and local government web resources and services.